FW4441 Weather Reports


Display with metric or nautical units.
time (UTC)temp
F
wind
direction
speed
MPH
gust
MPH
rain 1hr
in
rain 24hr
in
rain mn
in
humidity
%
barometer
mb
20260903063028 50 199 0.0 2.0 0.00 0.39 0.39 97 1007.6
20260903060026 51 114 1.0 4.0 0.00 0.39 0.39 96 1007.7
20260903054609 51 290 0.0 4.0 0.00 0.39 0.39 96 1007.6
20260903053029 52 25 1.0 4.0 0.01 0.39 0.39 96 1007.5
20260903051603 52 163 1.0 6.0 0.01 0.39 0.39 96 1007.4
20260903050031 53 166 2.0 4.0 0.01 0.39 0.39 96 1007.3
20260903044530 54 124 1.0 4.0 0.01 0.39 0.38 96 1007.2
20260903043106 54 106 0.0 2.0 0.00 0.38 0.38 96 1007.1
20260903041529 54 113 0.0 3.0 0.00 0.38 0.38 96 1006.8
20260903040030 54 90 1.0 3.0 0.00 0.38 0.38 96 1006.5
20260903034646 54 32 0.0 3.0 0.00 0.38 0.38 95 1006.4
20260903033040 55 22 0.0 1.0 0.05 0.38 0.38 95 1006.3
20260903031614 55 23 1.0 4.0 0.09 0.38 0.38 95 1006.3
20260903030032 56 23 4.0 7.0 0.18 0.38 0.38 95 1006.0
20260903024532 57 360 2.0 5.0 0.22 0.38 0.33 95 1006.1
20260903021643 57 300 2.0 8.0 0.13 0.28 0.20 95 1005.9
20260903020031 58 280 1.0 4.0 0.05 0.20 0.16 94 1005.6
20260903014531 58 16 1.0 4.0 0.02 0.16 0.16 94 1005.4
20260903013037 58 310 0.0 3.0 0.03 0.16 0.16 94 1005.5
20260903011531 58 18 0.0 3.0 0.04 0.16 0.15 94 1005.4
20260903010110 58 13 1.0 4.0 0.04 0.15 0.14 93 1005.5
20260903004531 58 352 2.0 3.0 0.03 0.14 0.13 93 1005.6
20260903003033 58 337 2.0 3.0 0.03 0.13 0.12 93 1005.7
20260903001530 58 326 2.0 4.0 0.02 0.12 0.11 93 1005.6
20260903000031 58 306 2.0 5.0 0.01 0.11 0.11 92 1005.5
20260902234609 59 320 2.0 5.0 0.01 0.11 0.10 92 1005.5
20260902233031 60 322 3.0 6.0 0.00 0.10 0.10 92 1005.6
20260902230032 60 297 3.0 6.0 0.01 0.10 0.10 92 1005.8
20260902224608 59 307 3.0 6.0 0.02 0.10 0.10 92 1005.6
20260902223030 59 330 2.0 5.0 0.03 0.10 0.09 91 1005.7
20260902220029 59 290 0.0 3.0 0.04 0.09 0.08 91 1005.4
20260902214539 59 263 2.0 6.0 0.04 0.08 0.07 90 1005.3
20260902213032 59 266 1.0 5.0 0.04 0.07 0.06 90 1005.3
20260902211530 59 283 1.0 7.0 0.04 0.06 0.05 89 1005.3
20260902210033 59 338 2.0 4.0 0.03 0.05 0.04 88 1005.4
20260902204529 59 1 1.0 5.0 0.02 0.05 0.03 87 1005.6
20260902201530 59 319 3.0 6.0 0.02 0.03 0.02 84 1005.6
20260902200030 60 328 3.0 7.0 0.02 0.03 0.02 81 1005.5
20260902194608 61 320 1.0 6.0 0.02 0.03 0.01 78 1005.6
20260902190030 65 200 3.0 5.0 0.00 0.01 0.00 68 1005.3
20260902184530 66 192 3.0 5.0 0.00 0.01 0.00 65 1005.2
20260902183032 67 215 2.0 5.0 0.00 0.01 0.00 64 1005.1
20260902181544 66 203 0.0 4.0 0.00 0.01 0.00 65 1005.2
20260902180107 66 216 1.0 4.0 0.00 0.01 0.00 64 1005.3
20260902174530 69 261 2.0 6.0 0.00 0.01 0.00 62 1005.3
20260902173032 69 265 3.0 8.0 0.00 0.01 0.00 63 1005.3
20260902171529 68 260 4.0 9.0 0.00 0.01 0.00 61 1005.5
20260902170030 69 278 2.0 6.0 0.00 0.01 0.00 63 1005.6
20260902164529 67 262 1.0 4.0 0.00 0.01 0.00 68 1005.9
20260902163030 62 351 1.0 3.0 0.00 0.01 0.00 72 1006.2
20260902161531 62 286 0.0 2.0 0.00 0.01 0.00 71 1006.4
20260902160029 63 275 0.0 3.0 0.00 0.01 0.00 71 1006.6
20260902154529 62 38 2.0 6.0 0.00 0.01 0.00 74 1006.7
20260902153109 61 21 3.0 6.0 0.00 0.01 0.00 78 1006.8
20260902150029 58 32 5.0 11.0 0.00 0.01 0.00 80 1007.1
20260902144608 57 16 6.0 11.0 0.00 0.01 0.00 82 1007.1
20260902141606 56 335 4.0 8.0 0.00 0.01 0.00 82 1007.4
20260902140031 55 341 4.0 7.0 0.00 0.01 0.00 82 1007.4
20260902134530 55 15 3.0 9.0 0.00 0.01 0.00 82 1007.4
20260902133034 54 68 2.0 4.0 0.00 0.01 0.00 82 1007.6
20260902131534 54 56 3.0 7.0 0.00 0.01 0.00 83 1007.6
20260902130028 54 47 2.0 6.0 0.00 0.01 0.00 83 1007.5
20260902124532 54 56 1.0 3.0 0.00 0.01 0.00 82 1007.5
20260902123109 54 110 1.0 3.0 0.00 0.01 0.00 82 1007.7
20260902120106 55 298 1.0 9.0 0.00 0.01 0.00 80 1007.7
20260902114530 56 255 4.0 11.0 0.00 0.01 0.00 80 1007.8
20260902113034 56 250 7.0 14.0 0.00 0.01 0.00 80 1007.7
20260902111531 56 249 7.0 12.0 0.00 0.01 0.00 81 1007.7
20260902110031 57 256 7.0 13.0 0.00 0.01 0.00 81 1007.7
20260902104531 57 259 8.0 16.0 0.00 0.01 0.00 82 1007.8
20260902103033 57 254 7.0 15.0 0.00 0.01 0.00 82 1008.0
20260902101531 57 259 6.0 15.0 0.00 0.01 0.00 82 1008.1
20260902094535 57 251 6.0 11.0 0.00 0.01 0.00 82 1008.2
20260902093038 56 252 6.0 14.0 0.00 0.01 0.00 83 1008.3
20260902091531 56 246 6.0 11.0 0.00 0.01 0.00 83 1008.4
20260902090031 56 245 5.0 11.0 0.00 0.01 0.00 83 1008.3
20260902084531 56 236 5.0 7.0 0.00 0.01 0.00 82 1008.3
20260902081531 57 250 6.0 11.0 0.00 0.01 0.00 81 1008.3
20260902074530 57 244 6.0 11.0 0.00 0.01 0.00 79 1008.5
20260902071531 59 239 9.0 14.0 0.00 0.01 0.00 75 1008.6
20260902070039 60 237 10.0 17.0 0.00 0.01 0.00 75 1008.9